Temperature
16 16 16 16 15 16 16 16 16 16 16 16 16 16 16 16 16 16 16 16 15 15 15 15 15 15 15 15 15 15 15 15 15 15 15 15 15 15 15 15 15 15 15
16 16 16 16 15 15 15 15 16 16 16 16 15 16 16 16 16 15 15 15 15 15 15 15 15 15 15 15 15 15 15 15 15 15 15 15 15 15 15 15 15 15 14
15 15 16 16 15 15 15 15 15 15 15 15 15 15 15 15 15 15 15 15 15 15 15 15 15 15 15 15 15 15 15 15 15 15 15 15 14 14 14 14 14 14 14
15 15 15 15 15 15 15 15 15 15 15 15 15 15 15 15 15 15 15 15 15 15 15 15 15 15 15 15 15 15 15 15 14 14 14 14 14 14 14 14 14 14 14
15 15 15 15 15 15 15 15 15 15 15 15 15 15 15 15 15 15 15 15 15 15 15 15 15 15 15 15 15 15 14 14 14 14 14 14 14 14 14 14 14 13 13
14 15 15 15 15 15 15 15 15 15 15 15 15 15 15 15 15 15 15 15 15 15 15 14 14 14 14 14 14 14 14 14 14 14 14 14 14 14 14 13 13 13 13
14 14 14 14 14 15 15 15 15 15 15 15 15 15 15 15 15 15 15 15 15 15 15 14 14 14 14 14 14 14 14 14 14 14 14 13 13 13 13 13 13 13 13
14 14 14 14 14 14 14 14 14 14 14 14 14 14 15 15 15 15 15 15 15 14 14 14 14 14 14 14 14 13 13 13 13 13 13 13 13 13 13 13 13 13 13
13 14 14 14 14 14 14 14 14 14 14 14 14 14 14 14 14 14 14 14 14 14 14 14 14 14 14 13 13 13 13 13 13 13 13 13 12 12 12 12 13 13 12
13 13 13 13 13 14 14 14 14 14 14 14 14 14 14 14 14 14 14 14 14 14 14 14 14 13 13 13 13 13 13 13 13 13 12 12 12 12 12 12 12 12 12
13 13 13 13 13 13 13 13 13 13 14 14 14 14 14 14 14 14 14 14 14 14 13 13 13 13 13 13 13 13 13 13 13 12 12 12 12 12 12 12 12 12 12
12 12 12 12 13 13 13 13 13 13 13 13 14 14 13 13 13 13 13 13 13 13 13 13 13 13 13 13 13 13 13 12 12 12 12 12 11 11 11 11 11 11 12
12 12 12 12 12 12 13 13 13 13 13 13 13 13 13 13 13 13 13 13 13 13 13 13 13 13 12 12 12 12 12 12 12 12 12 11 11 11 11 11 11 11 11
11 12 12 12 12 12 12 12 12 12 13 13 13 13 13 13 13 13 13 13 12 12 12 12 12 12 12 12 12 12 12 12 12 12 11 11 11 11 11 11 11 11 11
11 11 11 11 11 12 12 12 12 12 12 12 12 12 12 12 12 12 12 12 12 12 12 12 12 12 12 12 11 11 11 11 11 11 11 11 11 11 11 11 10 10 10
11 11 11 11 11 11 11 12 12 12 12 12 12 12 12 12 12 12 12 12 12 12 12 11 11 11 11 11 11 11 11 11 11 11 11 11 10 10 10 10 10 10 10
11 11 11 11 11 11 11 11 11 11 11 11 11 11 11 11 11 12 12 12 11 11 11 11 11 11 11 11 11 11 10 10 10 10 10 10 10 10 10 10 10 10 10
10 10 10 10 10 10 10 11 11 11 11 11 11 11 11 11 11 11 11 11 11 11 11 11 11 11 11 10 10 10 10 10 10 10 10 10 10 10 10 10 9 9 9
10 10 10 10 10 10 10 10 10 10 10 10 10 10 11 11 11 11 11 11 11 11 11 10 10 10 10 10 10 10 10 10 9 9 9 9 9 9 9 9 9 9 9
9 9 9 9 10 10 10 10 10 10 10 10 10 10 10 10 10 10 10 10 10 10 10 10 10 10 10 10 10 9 9 9 9 9 9 9 9 9 9 8 8 9 9
9 9 9 9 9 9 9 9 10 10 9 9 9 10 10 9 9 10 10 10 10 10 10 10 10 9 9 9 9 9 9 9 8 8 8 8 8 8 8 8 8 8 8
8 8 8 8 9 9 9 9 9 9 9 9 9 9 9 9 9 9 9 9 9 9 9 9 9 9 9 9 8 8 8 8 8 8 8 8 8 8 8 7 7 7 7
8 8 8 8 8 8 8 8 8 9 9 9 9 9 9 8 8 8 8 9 8 9 9 9 9 9 8 8 8 7 7 7 7 7 7 8 7 7 7 7 7 7 7
7 7 8 8 8 8 8 8 8 8 8 8 8 8 8 8 8 8 8 8 8 8 8 8 8 8 8 8 7 7 7 6 6 6 7 7 7 7 7 7 7 7 6
7 7 7 7 7 7 7 7 7 7 7 7 7 7 7 7 7 7 7 7 7 7 7 7 7 7 7 7 7 7 6 6 6 5 5 6 6 7 6 6 6 6 6
6 6 6 7 7 7 7 7 7 7 7 7 7 7 7 7 7 7 7 7 7 7 7 7 7 7 7 6 6 6 6 6 5 5 5 5 5 6 6 6 6 6 6
Wind_Speed
1 1 2 2 4 5 6 7 9 10 11 12 12 12 13 13 13 13 13 12 12 13 13 13 14 14 14 14 14 14 15 15 15 15 15 15 15 15 15 14 14 13 15
2 3 3 4 5 6 6 7 8 10 11 11 11 12 12 12 12 13 13 12 12 12 12 13 13 14 14 14 14 14 14 14 14 14 14 13 14 14 14 13 13 12 14
2 3 4 5 5 6 6 6 7 9 11 11 11 11 11 12 12 12 12 12 11 11 11 12 13 13 13 13 13 13 13 13 13 13 12 11 11 12 13 13 12 13 13
3 3 4 5 5 6 6 6 7 8 10 10 10 10 11 11 12 12 12 11 11 10 11 12 12 12 12 12 12 12 12 12 12 11 10 9 9 10 11 11 11 12 12
3 3 4 5 6 6 6 6 6 7 9 10 10 10 10 10 10 11 11 11 11 11 11 11 11 12 12 11 11 12 12 11 11 10 9 8 8 9 10 10 11 11 11
2 3 4 5 6 6 6 6 6 7 9 10 10 10 10 10 10 10 11 11 11 11 11 11 10 10 11 11 11 11 11 10 10 10 9 8 7 8 9 9 9 9 10
2 3 4 5 5 5 5 6 5 7 8 10 10 10 10 10 10 10 10 10 10 10 10 10 10 10 10 10 10 10 10 10 9 8 7 7 6 7 8 7 7 7 8
3 3 4 5 5 5 5 5 5 6 7 9 9 9 10 10 9 10 10 10 10 10 10 10 9 9 9 9 9 9 9 9 8 7 6 5 5 6 6 7 6 6 6
3 3 3 3 4 4 5 5 5 5 6 7 8 9 9 9 9 9 9 9 9 9 9 9 9 9 9 9 9 8 8 8 8 6 5 5 5 5 5 5 5 5 5
3 3 3 3 4 3 4 4 4 5 7 7 8 8 9 9 9 8 9 9 9 9 9 9 9 9 8 8 8 8 8 7 7 6 5 4 4 4 4 4 4 4 4
3 3 3 3 3 3 3 4 4 4 6 6 7 8 9 8 8 7 7 9 9 9 9 9 9 8 8 8 7 7 7 6 5 4 3 3 2 2 2 2 2 2 3
1 2 2 2 2 2 3 4 4 4 5 6 6 7 7 7 7 7 7 8 9 9 9 9 9 8 7 7 6 6 6 5 4 3 2 2 1 1 1 1 1 1 2
0 2 2 1 2 2 2 3 3 4 4 5 6 7 7 7 7 6 6 6 7 7 7 7 7 7 6 5 5 5 4 4 3 2 1 1 1 1 1 1 1 1 1
1 2 2 1 1 2 3 3 3 3 4 4 5 6 6 5 5 4 4 5 5 5 5 6 5 5 5 5 4 4 4 3 3 2 1 1 0 0 0 1 2 2 2
1 2 2 1 1 2 2 3 3 3 3 4 5 5 6 4 4 4 3 4 4 5 4 4 4 4 3 3 3 3 3 3 2 2 1 1 0 0 1 2 2 3 3
1 1 1 1 1 2 2 2 3 3 3 4 4 4 6 5 4 4 3 3 3 4 4 3 3 3 2 2 2 2 2 2 2 2 1 1 1 1 2 3 3 4 4
1 2 1 0 1 2 2 3 3 3 3 3 3 4 5 5 5 5 4 3 3 4 4 3 3 3 2 2 1 1 1 1 2 2 1 1 1 2 3 3 4 4 5
1 1 2 0 1 2 2 3 3 4 3 2 3 4 4 5 5 5 4 2 3 4 3 2 2 2 1 1 0 0 0 1 1 1 1 1 1 2 3 4 5 4 5
1 1 1 1 1 2 3 4 4 4 3 3 3 3 4 4 5 5 3 3 4 3 2 2 2 1 1 0 0 0 0 0 0 0 1 1 1 2 3 4 5 5 6
2 2 2 1 2 2 3 3 3 3 3 3 3 3 3 4 4 5 3 3 4 3 2 2 2 2 1 1 0 1 1 1 0 0 1 1 1 2 3 3 4 5 6
3 3 2 2 2 2 2 1 2 1 1 1 2 3 3 3 4 4 3 3 3 3 3 3 2 2 1 1 1 1 1 1 0 0 1 0 1 2 2 3 3 4 4
2 2 2 1 2 1 1 1 1 1 1 1 2 3 4 3 3 3 3 2 2 2 3 3 2 2 1 1 1 1 1 2 2 1 1 1 1 2 2 3 3 3 4
2 1 1 1 1 1 2 2 2 2 2 2 1 1 2 3 3 3 3 3 2 2 2 2 3 4 2 1 1 2 2 2 2 2 1 1 1 1 2 3 3 4 4
2 1 1 1 1 1 2 2 2 2 1 1 0 1 2 2 3 3 3 2 2 2 2 2 2 2 3 2 1 0 1 2 1 2 2 2 2 2 2 2 3 4 4
1 0 1 2 2 2 2 2 3 2 1 1 1 2 1 2 2 2 2 2 1 1 1 1 2 2 2 3 2 1 1 1 1 1 2 3 3 2 2 2 2 3 4
1 1 2 2 3 3 2 2 2 2 2 2 2 1 1 0 1 2 1 2 1 1 1 2 2 2 2 2 2 2 2 2 2 2 2 3 3 3 3 2 2 2 3
Wind_Direction
247 264 179 134 122 115 104 109 115 118 117 114 116 117 117 115 113 111 107 105 103 101 98 97 96 93 91 89 88 86 84 81 80 79 79 80 82 86 86 84 83 82 86
181 185 156 135 133 121 112 105 117 122 119 116 115 116 118 117 115 114 110 107 104 102 101 100 98 95 93 91 89 88 85 84 81 79 77 77 80 86 88 88 87 87 86
112 148 146 133 131 125 114 109 116 126 123 117 116 115 118 118 116 113 112 110 107 105 104 103 101 98 95 93 92 91 88 86 84 80 76 73 78 85 88 89 90 88 87
104 118 130 129 127 130 121 113 114 127 128 123 119 117 116 118 116 113 112 112 110 108 108 106 104 101 99 97 94 92 92 90 84 79 71 69 76 85 87 87 87 89 88
92 109 121 120 119 127 127 118 119 129 134 129 126 123 117 117 118 116 114 112 110 110 110 108 105 103 102 100 97 94 92 87 81 76 71 70 76 86 86 85 85 87 89
83 101 124 122 119 118 128 125 123 133 137 134 130 127 123 118 121 121 118 114 112 109 109 108 106 105 103 102 100 97 95 90 81 76 72 72 78 87 88 86 86 85 88
98 93 120 125 120 122 128 131 126 135 137 137 135 132 129 122 119 121 120 118 116 114 112 110 107 107 106 105 103 101 96 91 85 77 73 73 81 90 90 91 88 88 89
101 81 107 129 124 125 124 127 129 134 134 137 137 133 129 124 121 121 122 120 119 116 113 112 109 109 108 106 105 103 97 92 87 79 73 77 88 91 91 91 91 94 95
71 73 73 101 118 127 126 120 130 134 137 138 139 134 130 125 122 120 118 119 117 115 114 113 110 110 110 107 105 103 99 95 87 83 80 82 92 94 92 91 90 91 92
53 50 54 72 90 104 123 123 124 136 138 136 140 134 129 123 121 119 117 118 116 113 112 113 112 111 109 107 106 104 99 96 87 85 85 88 90 91 88 88 94 100 103
38 27 31 49 69 84 108 121 119 129 131 129 135 135 128 117 116 119 117 117 115 111 108 108 108 105 105 104 104 105 100 94 89 86 93 97 101 106 98 91 96 113 116
349 345 14 42 58 75 101 107 108 113 118 119 125 128 119 114 113 114 117 117 116 112 107 106 106 100 95 93 95 98 97 97 92 84 102 105 102 122 150 133 101 132 145
302 333 338 20 52 84 93 102 100 105 109 113 116 122 119 111 108 105 108 106 104 101 93 95 92 91 92 92 92 93 96 98 94 83 90 91 84 132 175 181 179 204 207
19 332 334 19 53 87 100 106 109 109 110 107 125 123 122 113 106 103 99 97 92 89 85 84 87 91 90 92 98 97 96 98 98 91 99 108 123 82 260 257 246 237 240
15 325 328 355 117 103 102 107 113 113 112 113 120 126 128 123 123 118 108 101 96 97 97 92 91 96 97 89 93 101 102 105 110 105 98 86 64 315 284 281 285 259 255
310 306 312 289 127 111 124 123 115 110 109 113 117 126 129 131 130 129 122 110 103 106 107 111 110 111 112 105 91 99 109 114 119 115 90 46 13 329 301 284 287 288 274
311 322 310 233 122 118 125 117 109 107 109 113 125 129 128 128 137 137 131 121 115 113 109 107 100 100 104 99 90 91 109 120 116 107 87 54 6 337 316 299 293 286 285
341 335 327 38 99 121 116 109 105 108 104 104 122 123 127 129 129 134 131 132 122 114 109 118 113 108 99 101 116 280 54 110 108 104 75 46 9 340 323 316 309 300 290
354 355 3 46 105 113 104 92 100 112 105 102 105 115 127 127 127 124 133 128 126 115 109 124 101 114 131 121 217 354 356 60 295 100 59 23 353 335 325 314 311 307 305
17 35 47 62 81 95 99 96 84 84 87 89 98 102 117 125 127 120 111 127 128 123 121 125 123 88 119 161 127 31 341 315 349 66 277 325 343 326 318 316 316 310 312
27 37 42 51 52 84 87 99 99 96 80 82 86 90 98 113 123 119 107 112 131 152 157 143 134 109 67 58 80 27 346 329 308 321 310 323 334 325 321 319 316 313 315
12 23 38 45 53 51 82 120 116 128 119 77 66 81 89 93 116 128 113 125 126 152 148 144 132 132 110 90 102 92 329 320 316 306 320 308 310 322 314 308 302 307 307
344 338 13 20 57 56 60 81 86 82 69 49 25 63 67 94 101 115 120 123 125 143 162 172 171 162 171 197 123 134 155 237 293 303 296 311 327 311 299 309 303 303 302
269 293 31 37 52 57 71 85 96 113 126 181 110 52 50 74 83 90 110 121 131 136 157 180 174 174 167 184 206 64 140 153 179 284 300 308 307 289 286 300 290 288 293
239 73 57 55 50 48 67 83 95 93 121 95 68 70 44 49 62 72 105 108 120 138 162 174 177 167 171 178 175 163 139 76 147 197 269 301 312 287 284 271 264 284 292
96 77 68 69 52 46 58 64 82 101 98 99 82 78 27 349 60 45 66 105 122 136 185 197 190 179 182 176 176 175 171 175 203 197 239 283 287 285 287 269 252 275 295
Height
1508 1509 1511 1512 1513 1513 1514 1515 1516 1517 1518 1519 1520 1521 1522 1523 1523 1524 1525 1526 1526 1527 1528 1528 1529 1530 1530 1531 1532 1532 1533 1533 1533 1534 1534 1535 1535 1536 1536 1536 1537 1537 1538
1507 1508 1510 1511 1512 1513 1514 1515 1516 1518 1519 1520 1521 1522 1522 1523 1524 1525 1526 1526 1527 1528 1529 1529 1530 1531 1531 1532 1533 1533 1534 1534 1535 1535 1535 1536 1536 1537 1537 1538 1538 1539 1539
1507 1508 1509 1511 1512 1513 1514 1515 1516 1518 1519 1520 1521 1522 1523 1524 1525 1526 1526 1527 1528 1529 1529 1530 1531 1532 1532 1533 1534 1534 1535 1535 1536 1536 1537 1537 1538 1538 1539 1539 1540 1540 1541
1507 1508 1509 1510 1512 1513 1514 1515 1516 1518 1519 1520 1522 1523 1524 1524 1525 1526 1527 1528 1528 1529 1530 1531 1532 1532 1533 1534 1534 1535 1536 1536 1537 1537 1538 1538 1539 1540 1540 1541 1541 1541 1542
1507 1508 1509 1510 1511 1513 1514 1515 1516 1518 1519 1520 1522 1523 1524 1525 1526 1526 1527 1528 1529 1530 1531 1531 1532 1533 1534 1534 1535 1536 1536 1537 1538 1538 1539 1539 1540 1541 1541 1542 1542 1542 1543
1507 1508 1509 1510 1511 1512 1513 1515 1516 1517 1519 1520 1521 1523 1524 1525 1526 1527 1527 1528 1529 1530 1531 1532 1532 1533 1534 1535 1535 1536 1537 1538 1538 1539 1540 1540 1541 1541 1542 1542 1543 1543 1543
1506 1507 1508 1509 1510 1511 1513 1514 1515 1517 1518 1519 1521 1522 1523 1524 1525 1526 1527 1528 1529 1530 1531 1532 1533 1534 1535 1535 1536 1537 1537 1538 1539 1539 1540 1541 1541 1542 1542 1543 1543 1543 1544
1506 1506 1507 1509 1510 1511 1512 1513 1514 1516 1517 1519 1520 1522 1523 1524 1525 1526 1527 1528 1529 1530 1531 1532 1533 1534 1535 1535 1536 1537 1538 1538 1539 1540 1540 1541 1542 1542 1543 1543 1543 1543 1544
1505 1506 1507 1508 1509 1510 1511 1513 1514 1515 1516 1518 1519 1521 1522 1523 1524 1525 1526 1528 1529 1529 1531 1532 1533 1533 1534 1535 1536 1537 1538 1538 1539 1539 1540 1541 1542 1542 1542 1543 1543 1543 1543
1505 1505 1506 1507 1508 1509 1510 1512 1513 1514 1516 1517 1519 1520 1522 1523 1524 1525 1526 1527 1528 1529 1530 1531 1532 1533 1534 1535 1536 1536 1537 1538 1538 1539 1539 1540 1541 1541 1542 1542 1542 1542 1543
1503 1504 1505 1506 1507 1508 1509 1510 1512 1513 1515 1516 1517 1519 1521 1522 1523 1524 1525 1526 1528 1529 1530 1531 1531 1532 1533 1534 1535 1536 1536 1537 1537 1538 1539 1539 1540 1540 1541 1541 1541 1542 1542
1501 1503 1504 1504 1505 1507 1508 1509 1511 1512 1513 1515 1516 1518 1519 1520 1522 1523 1524 1525 1527 1528 1529 1530 1531 1532 1532 1533 1534 1535 1535 1536 1536 1537 1538 1538 1539 1539 1539 1540 1540 1540 1541
1500 1501 1502 1503 1504 1505 1506 1508 1509 1510 1512 1513 1514 1516 1517 1519 1520 1522 1523 1524 1526 1527 1528 1529 1530 1531 1532 1532 1533 1533 1534 1534 1535 1536 1536 1537 1537 1538 1538 1538 1539 1539 1539
1499 1500 1501 1502 1503 1503 1505 1506 1507 1509 1510 1511 1512 1514 1515 1517 1518 1520 1521 1522 1524 1525 1527 1527 1528 1529 1530 1531 1532 1532 1533 1533 1533 1534 1534 1535 1536 1536 1536 1536 1537 1537 1537
1498 1498 1499 1500 1501 1502 1503 1504 1506 1507 1508 1509 1510 1512 1513 1515 1516 1518 1520 1521 1523 1524 1525 1526 1527 1528 1529 1530 1530 1531 1531 1531 1532 1532 1532 1533 1534 1534 1534 1534 1535 1535 1535
1496 1497 1497 1498 1499 1500 1501 1502 1504 1505 1506 1507 1509 1510 1511 1513 1514 1516 1518 1519 1521 1522 1524 1524 1525 1526 1527 1528 1528 1529 1529 1529 1530 1530 1530 1531 1531 1532 1532 1532 1532 1532 1533
1495 1495 1496 1496 1497 1498 1499 1500 1501 1503 1504 1506 1507 1508 1509 1511 1512 1514 1515 1517 1519 1520 1522 1522 1523 1524 1525 1526 1526 1527 1527 1527 1527 1528 1528 1529 1529 1529 1529 1529 1529 1530 1530
1493 1494 1494 1494 1495 1496 1497 1498 1499 1501 1502 1504 1505 1506 1507 1509 1510 1511 1513 1515 1517 1518 1519 1520 1521 1522 1522 1523 1524 1524 1525 1525 1525 1526 1526 1526 1526 1527 1526 1526 1527 1527 1526
1491 1492 1492 1493 1493 1494 1494 1496 1497 1499 1500 1502 1503 1504 1505 1507 1508 1509 1511 1512 1514 1515 1517 1518 1518 1519 1520 1521 1521 1522 1522 1523 1523 1523 1524 1524 1524 1523 1523 1523 1523 1523 1523
1490 1490 1491 1491 1492 1493 1493 1494 1495 1497 1498 1499 1501 1502 1504 1505 1506 1507 1509 1510 1512 1513 1514 1515 1516 1517 1518 1518 1519 1519 1520 1520 1520 1520 1521 1521 1521 1521 1520 1520 1520 1519 1519
1488 1488 1489 1489 1490 1490 1491 1492 1493 1495 1496 1497 1498 1499 1501 1503 1504 1505 1506 1508 1509 1510 1511 1512 1514 1514 1515 1516 1516 1516 1517 1517 1517 1518 1518 1518 1518 1518 1518 1517 1516 1516 1516
1486 1487 1487 1488 1488 1489 1490 1491 1492 1493 1494 1495 1496 1497 1499 1500 1502 1503 1504 1505 1506 1508 1509 1510 1511 1511 1512 1513 1513 1513 1514 1515 1514 1514 1514 1514 1515 1515 1514 1514 1513 1513 1513
1485 1485 1486 1486 1487 1488 1489 1490 1491 1491 1492 1494 1494 1494 1496 1498 1499 1501 1502 1503 1504 1505 1505 1507 1508 1509 1509 1510 1511 1512 1511 1510 1510 1511 1511 1511 1511 1511 1511 1510 1510 1510 1510
1484 1485 1485 1485 1486 1486 1487 1488 1488 1489 1490 1491 1492 1492 1494 1495 1497 1498 1499 1500 1501 1502 1503 1504 1505 1505 1506 1507 1508 1508 1509 1509 1509 1507 1507 1508 1508 1507 1507 1507 1507 1507 1506
1483 1483 1484 1484 1484 1485 1485 1485 1486 1487 1488 1489 1490 1491 1492 1493 1494 1495 1496 1497 1498 1499 1500 1501 1502 1502 1503 1503 1504 1504 1505 1506 1505 1505 1503 1503 1504 1504 1504 1503 1503 1503 1503
1481 1481 1482 1482 1483 1483 1484 1484 1484 1485 1486 1487 1488 1489 1490 1491 1492 1493 1493 1494 1495 1496 1497 1498 1499 1499 1500 1500 1501 1501 1502 1502 1502 1502 1501 1499 1499 1500 1500 1500 1499 1499 1499